Location: Waco, TX
(31.5480°N, 97.1670°W)
Time: 22:57:22
(UTC-05:00)

ISS - Pass Details

Date: 23 April 2018
Orbit: 403 x 406 km, 51.6° (Epoch: 23 April)

Event Time Altitude Azimuth Distance (km) Brightness Sun altitude
Rises 09:44:21 0° 260° (W) 2,307 -0.5 35.7°
Reaches altitude 10° 09:46:56 10° 282° (WNW) 1,451 -1.4 36.3°
Maximum altitude 09:49:08 17° 325° (NW) 1,117 -1.8 36.7°
Drops below altitude 10° 09:51:20 10° 7° (N) 1,456 -0.9 37.2°
Sets 09:53:57 0° 29° (NNE) 2,319 0.2 37.7°
